Flag for Israel Weather past 2 weeks in Rishon LeZion, Israel

Now
55 °F

Passing clouds.


Feels Like: 55 °F
Forecast: 53 / 64 °F
Wind: 5 mph from Southeast

Location: Ben Gurion International Airport

Current Time: Mar 2, 2015 at 2:18:18 AM

Latest Report: Mar 2, 2015 at 1:50 AM


Visibility: N/A

Pressure: 30.09 "Hg

Humidity: 82%

Dew point: 50 °F

Location of Rishon LeZionLocation

Historic Weather in Rishon LeZion — Graph

°F

Rishon LeZion temperature yesterday

Maximum temperature yesterday: 68 °F (at 10:50 AM)
Minimum temperature yesterday: 52 °F (at 3:20 AM)
Average temperature yesterday: 59 °F

Past Weeks' High & Low Weather Summary

 TemperatureHumidityPressure
High86 °F (Feb 27, 1:50 PM)94% (Feb 15, 9:50 PM)30.21 "Hg (Feb 15, 9:50 PM)
Low41 °F (Feb 19, 11:20 PM)19% (Feb 27, 11:50 AM)29.71 "Hg (Feb 20, 4:50 AM)
Average57 °F67%30.01 "Hg
* Reported Feb 15 1:20 AM — Mar 2 1:20 AM, Rishon LeZion, Weather by CustomWeather, © 2015

Note: Actual official high and low records may vary slightly from our data, if they occured in-between our weather recording intervals... More about our weather records

Advertising

Rishon LeZion weather history for previous 24 hours

 ConditionsComfort  
Time TempWeatherWind HumidityBarometerVisibility
1:20 AM
Mon, Mar 2
55 °FPassing clouds.5 mph77%30.09 "HgN/A
12:50 AM55 °FPassing clouds.5 mph77%30.09 "HgN/A
12:20 AM55 °FPassing clouds.2 mph77%30.09 "HgN/A
11:50 PM
Sun, Mar 1
55 °FPassing clouds.3 mph77%30.09 "HgN/A
11:20 PM55 °FPassing clouds.6 mph77%30.09 "HgN/A
10:50 PM55 °FPassing clouds.6 mph77%30.09 "HgN/A
10:20 PM55 °FPassing clouds.5 mph82%30.09 "HgN/A
9:20 PM57 °FPassing clouds.2 mph77%30.09 "HgN/A
8:50 PM59 °FPassing clouds.2 mph72%30.09 "HgN/A
8:20 PM59 °FPassing clouds.2 mph72%30.09 "HgN/A
7:50 PM59 °FPassing clouds.1 mph72%30.07 "HgN/A
7:20 PM61 °FPassing clouds.5 mph68%30.07 "HgN/A
6:50 PM61 °FPassing clouds.7 mph68%30.07 "HgN/A
6:20 PM61 °FPassing clouds.7 mph68%30.07 "HgN/A
5:50 PM61 °FPassing clouds.7 mph68%30.07 "HgN/A
5:20 PM63 °FPassing clouds.8 mph59%30.04 "HgN/A
4:50 PM63 °FScattered clouds.9 mph59%30.04 "HgN/A
4:20 PM64 °FScattered clouds.10 mph60%30.04 "HgN/A
3:50 PM64 °FScattered clouds.10 mph56%30.04 "HgN/A
3:20 PM64 °FPassing clouds.12 mph56%30.07 "HgN/A
2:50 PM64 °FPassing clouds.12 mph60%30.07 "HgN/A
2:20 PM64 °FPassing clouds.12 mph56%30.07 "HgN/A
1:50 PM64 °FScattered clouds.12 mph56%30.07 "HgN/A
1:20 PM64 °FScattered clouds.10 mph56%30.07 "HgN/A
12:50 PM64 °FScattered clouds.9 mph56%30.09 "HgN/A
12:20 PM64 °FScattered clouds.10 mph56%30.09 "HgN/A
11:50 AM64 °FScattered clouds.9 mph56%30.09 "HgN/A
11:20 AM68 °FScattered clouds.2 mph43%30.12 "HgN/A
10:50 AM68 °FScattered clouds.2 mph46%30.12 "HgN/A
10:20 AM64 °FScattered clouds.2 mph52%30.12 "HgN/A
9:50 AM64 °FScattered clouds.3 mph52%30.12 "HgN/A
9:20 AM63 °FPassing clouds.2 mph59%30.12 "HgN/A
8:50 AM61 °FSunny.2 mph63%30.15 "Hg10 mi
8:20 AM57 °FPassing clouds.3 mph67%30.12 "HgN/A
7:50 AM54 °FScattered clouds.2 mph77%30.15 "HgN/A
7:20 AM52 °FScattered clouds.3 mph82%30.15 "HgN/A
6:50 AM52 °FScattered clouds.5 mph77%30.12 "HgN/A
6:20 AM52 °FPartly sunny.2 mph82%30.12 "HgN/A
5:50 AM52 °FPassing clouds.5 mph77%30.12 "HgN/A
5:20 AM52 °FPassing clouds.3 mph82%30.09 "HgN/A
4:50 AM52 °FPassing clouds.3 mph82%30.09 "HgN/A
4:20 AM52 °FClear.3 mph82%30.09 "Hg10 mi
3:50 AM52 °FClear.5 mph82%30.09 "Hg10 mi
3:20 AM52 °FPassing clouds.5 mph82%30.09 "HgN/A
2:50 AM54 °FPassing clouds.5 mph77%30.09 "HgN/A
2:20 AM54 °FPassing clouds.3 mph77%30.09 "HgN/A
Weather by CustomWeather, © 2015

See weather overviewHow to use our weather pages